DELTA 1 DEB

Satellite information

Favourite Embed

Satellite Type and Status

DEBRISIN ORBIT

Key statistics

Satellite DELTA 1 DEB at a glance.

Uptime

18814

Days in orbit

Revolutions

≈ 12.5

Per day

Orbit

SSO

Sun Synchronous Orbit

Inclination

101.9

Latest

Satellite identification and parameters

Extended collection of information and parameters for DELTA 1 DEB.

Object identification

Identified? True

Debris? True

Object name: DELTA 1 DEB

International designator: 1973-086HW

Object number (NORAD): 42582

Object ID (CCSDS): 42582

Country: UNITED STATES OF AMERICA (US)

Current information (Y/N): Y

RCS size: SMALL

Orbital parameters

Period: 115.592 minutes

Inclination: 101.8521 deg

SMA: 7860.396 km

Apoapsis: 1492.368 km

Periapsis: 1472.155 km

RAAN: 257.0136 deg

Eccentricy: 0.0012858

Argument of periapsis: 115.7749 deg

Mean anomaly: 244.4646 deg

Mean motion: 12.45764885 rev/day

Mean motion (dot): 0.00000236 rev/day2

B* drag term: 0.0019484 1/REarth

Two-line elements (TLE)

Creation date: May 8, 2025, 3:01 a.m.

Reference frame: TEME

Reference center: EARTH

Epoch: Nov. 8, 2024, 3:36 p.m. UTC

TLE line 0: 0 DELTA 1 DEB

TLE line 1: 1 42582U 73086HW 24313.65055970 .00000236 00000-0 19484-2 0 9994

TLE line 2: 2 42582 101.8521 257.0136 0012858 115.7749 244.4646 12.45764885498497

Live tracking on map

Real-time ground track for satellite DELTA 1 DEB.

In-orbit conjunctions

A list of the most updated potential collisions computed for object DELTA 1 DEB.

Target Orbit TCA Probability of collision Miss distance Type
COSMOS 876 LEO 2024-09-24 22:29:25 0.0006863105 556.0 (m) PAYLOAD

Associated space launch

Meteorological satellite using radiometric imaging

DELTA 1 DEB was lifted into orbit during the mission ‘Delta 0300 | NOAA 3’, on board a Delta 0300 space rocket.

The launch took place on Nov. 6, 1973, 5:02 p.m. from Space Launch Complex 2W.

For more information about the launch, click the button.

Launch to space Delta 0300 | NOAA 3
Delta 0300 | NOAA 3

Agency: N/A

Status: Launch Successful

Launch date: Nov. 6, 1973, 5:02 p.m. UTC

Rocket: Delta 0300

Launch pad: Space Launch Complex 2W

Location: Vandenberg SFB, CA, USA

...

Latest news about this satellite

There are no fresh news available about this satellite. Check back as we update our databases every day.


Newsletter sign-up

Weekly statistics, charts and insights to help you stay on top of the space industry.